EW5461 Weather Reports


Display with metric or nautical units.
time (UTC)temp
F
wind
direction
speed
MPH
gust
MPH
rain 1hr
in
rain 24hr
in
rain mn
in
humidity
%
barometer
mb
20260505024523 75 155 7.0 17.0 0.00 0.00 0.00 71 1004.0
20260505023023 76 161 4.0 17.0 0.00 0.00 0.00 71 1003.9
20260505021526 76 180 5.0 14.0 0.00 0.00 0.00 71 1003.8
20260505020021 76 128 3.0 15.0 0.00 0.00 0.00 70 1003.6
20260505014520 76 161 7.0 13.0 0.00 0.00 0.00 70 1003.8
20260505013020 76 170 6.0 13.0 0.00 0.00 0.00 69 1003.8
20260505011520 77 165 6.0 20.0 0.00 0.00 0.00 68 1003.7
20260505010017 77 111 7.0 16.0 0.00 0.00 0.00 68 1003.8
20260505004516 77 166 8.0 18.0 0.00 0.00 0.00 67 1003.9
20260505003018 78 154 8.0 16.0 0.00 0.00 0.00 66 1003.8
20260505001514 78 155 7.0 17.0 0.00 0.00 0.00 65 1003.9
20260505000012 79 155 9.0 19.0 0.00 0.00 0.00 64 1004.0
20260504234510 79 188 7.0 18.0 0.00 0.00 0.00 64 1004.2
20260504233012 79 124 3.0 18.0 0.00 0.00 0.00 64 1004.2
20260504231507 79 144 8.0 17.0 0.00 0.00 0.00 63 1004.3
20260504230006 79 171 10.0 26.0 0.00 0.00 0.00 62 1004.3
20260504224603 80 135 11.0 21.0 0.00 0.00 0.00 61 1004.7
20260504223003 80 200 11.0 21.0 0.00 0.00 0.00 61 1004.7
20260504221501 80 141 10.0 21.0 0.00 0.00 0.00 60 1004.7
20260504220121 81 178 8.0 21.0 0.00 0.00 0.00 60 1004.8
20260504214559 81 229 11.0 22.0 0.00 0.00 0.00 60 1005.0
20260504213100 81 163 7.0 20.0 0.00 0.00 0.00 60 1005.2
20260504211555 82 145 7.0 21.0 0.00 0.00 0.00 59 1005.5
20260504210051 82 182 6.0 26.0 0.00 0.00 0.00 59 1005.6
20260504204549 82 161 10.0 23.0 0.00 0.00 0.00 58 1005.9
20260504203046 81 151 7.0 19.0 0.00 0.00 0.00 60 1006.2
20260504201543 81 163 9.0 22.0 0.00 0.00 0.00 59 1006.5
20260504200048 80 209 13.0 22.0 0.00 0.00 0.00 60 1006.8
20260504194541 80 169 10.0 21.0 0.00 0.00 0.00 60 1007.3
20260504193035 80 205 8.0 21.0 0.00 0.00 0.00 61 1007.6
20260504191548 79 184 5.0 18.0 0.00 0.00 0.00 62 1007.6
20260504190031 79 165 6.0 20.0 0.00 0.00 0.00 61 1008.1
20260504184531 78 172 7.0 16.0 0.00 0.00 0.00 62 1008.2
20260504183038 78 198 7.0 15.0 0.00 0.00 0.00 62 1008.5
20260504181525 77 178 9.0 20.0 0.00 0.00 0.00 62 1008.7
20260504180021 76 257 6.0 17.0 0.00 0.00 0.00 64 1009.0
20260504174519 76 170 8.0 14.0 0.00 0.00 0.00 65 1009.3
20260504173013 75 182 6.0 21.0 0.00 0.00 0.00 64 1009.5
20260504171509 74 154 8.0 21.0 0.00 0.00 0.00 65 1009.7
20260504081554 63 175 7.0 18.0 0.00 0.00 0.00 68 1012.1
20260504050012 67 160 4.0 10.0 0.00 0.00 0.00 58 1014.2
20260504044520 68 114 3.0 13.0 0.00 0.00 0.00 57 1014.3
20260504043012 68 196 5.0 11.0 0.00 0.00 0.00 56 1014.4
20260504041509 69 163 4.0 11.0 0.00 0.00 0.00 54 1014.5
20260504040009 69 171 5.0 10.0 0.00 0.00 0.00 53 1014.5
20260504034509 70 199 5.0 10.0 0.00 0.00 0.00 52 1014.5
20260504033009 70 167 3.0 9.0 0.00 0.00 0.00 51 1014.4
20260504031508 70 188 4.0 9.0 0.00 0.00 0.00 50 1014.3
20260504030025 71 186 6.0 12.0 0.00 0.00 0.00 49 1014.3